Terminal Aerodrome Forecast
Issued by NWS

Home | Current Version | Previous Version | Text Only | Print | Product List | Glossary On
Versions: 1 2 3 4 5 6 7 8 9 10 11 12 13 14 15 16 17
360
FTUS43 KAPX 221356 AAA
TAFPLN
TAF AMD
KPLN 221356Z 2214/2312 27010G18KT P6SM VCSH BKN020
      TEMPO 2214/2215 27018G30KT 2SM SHRA BKN015
     FM221600 31011G19KT P6SM BKN025
     FM221800 30013G22KT P6SM SCT040
     FM230100 30009KT P6SM FEW250
     FM230600 30007KT P6SM BKN040=

USA.gov is the U.S. government's official web portal to all federal, state and local government web resources and services.